Date String (YYYY-MM-DD hh:mm:ss) UTC,Instrument flags,Ambient pressure (hPa),Sample flow (lpm),Bypass flow (lpm),Sample temperature (°C),Ambient temperature (°C),ASC tube jacket temperature (°C),LED temperature (°C),Box temperature (°C),Sample RH (%),Span deviation,Mass concentration (μg/m³),Mass concentration (μg/m³),Mass concentration (μg/m³)
DateTimeUTC,F1_M11,P_M11,Q1_M11,Q2_M11,T1_M11,T2_M11,T3_M11,T4_M11,T5_M11,U1_M11,ZSPAN_M11,X0_M11,X2_M11,X1_M11
2022-11-09 00:00:00,,0820.9,5.00,0.00,30.2,28.7,00.0,39.0,32.0,10.5,0000.0,0012.57,0003.60,0002.43
2022-11-09 00:01:00,,0820.9,5.00,0.00,30.2,28.8,00.0,39.0,32.0,10.6,-000.0,0013.89,0003.68,0002.56
2022-11-09 00:02:00,,0820.9,5.00,0.00,30.2,28.8,00.0,39.0,32.1,10.6,0000.2,0014.40,0003.76,0002.67
2022-11-09 00:03:00,,0820.9,4.98,0.00,30.2,28.9,00.0,39.0,32.1,10.7,-000.6,0014.44,0003.89,0002.79
2022-11-09 00:04:00,,0820.9,5.01,0.00,30.2,28.9,00.0,39.0,32.1,10.7,-000.9,0015.10,0004.02,0002.91
2022-11-09 00:05:00,,0821.0,5.01,0.00,30.2,28.9,00.0,39.0,32.1,10.7,-001.4,0015.45,0004.16,0003.03
2022-11-09 00:06:00,,0820.9,5.00,0.00,30.3,28.9,00.0,39.0,32.1,10.7,-001.8,0016.93,0004.27,0003.13
2022-11-09 00:07:00,,0820.8,5.00,0.00,30.3,29.0,00.0,39.0,32.1,10.7,-002.0,0018.15,0004.41,0003.20
2022-11-09 00:08:00,,0820.8,5.00,0.00,30.3,29.0,00.0,39.0,32.1,10.8,-002.0,0018.11,0004.48,0003.24
2022-11-09 00:09:00,,0820.8,5.01,0.00,30.3,29.0,00.0,39.0,32.1,10.7,-001.6,0018.19,0004.49,0003.29
2022-11-09 00:10:00,,0820.8,5.00,0.00,30.3,29.0,00.0,39.0,32.1,10.8,-001.1,0019.27,0004.48,0003.33
2022-11-09 00:11:00,,0820.8,5.01,0.00,30.3,29.0,00.0,39.0,32.1,10.8,-000.5,0019.72,0004.46,0003.37
2022-11-09 00:12:00,,0820.8,4.98,0.00,30.3,29.0,00.0,39.0,32.1,10.8,0000.3,0019.21,0004.54,0003.41
2022-11-09 00:13:00,,0820.8,5.00,0.00,30.3,29.1,00.0,39.0,32.2,10.7,-000.1,0019.15,0004.61,0003.44
2022-11-09 00:14:00,,0820.8,5.00,0.00,30.3,29.1,00.0,39.1,32.1,10.8,-000.1,0019.64,0004.60,0003.47
2022-11-09 00:15:00,,0820.8,5.00,0.00,30.4,29.1,00.0,39.1,32.2,10.7,0000.3,0019.96,0004.56,0003.48
2022-11-09 00:16:00,,0820.8,5.00,0.00,30.4,29.1,00.0,39.1,32.2,10.7,0000.9,0020.43,0004.56,0003.49
2022-11-09 00:17:00,,0820.9,5.00,0.00,30.4,29.1,00.0,39.1,32.2,10.7,0002.0,0020.05,0004.57,0003.51
2022-11-09 00:18:00,,0820.9,5.01,0.00,30.4,29.1,00.0,39.1,32.2,10.7,0002.6,0018.88,0004.56,0003.52
2022-11-09 00:19:00,,0820.9,5.00,0.00,30.4,29.1,00.0,39.1,32.2,10.7,0002.9,0018.44,0004.58,0003.54
2022-11-09 00:20:00,,0820.9,5.00,0.00,30.4,29.1,00.0,39.1,32.2,10.7,0002.8,0018.44,0004.61,0003.53
2022-11-09 00:21:00,,0821.0,5.00,0.00,30.4,29.2,00.0,39.1,32.2,10.7,0001.9,0016.80,0004.56,0003.53
2022-11-09 00:22:00,,0820.9,4.98,0.00,30.4,29.1,00.0,39.1,32.2,10.7,0001.2,0016.65,0004.52,0003.52
2022-11-09 00:23:00,,0820.9,5.00,0.00,30.4,29.1,00.0,39.1,32.3,10.7,0000.2,0016.14,0004.47,0003.51
2022-11-09 00:24:00,,0820.9,5.00,0.00,30.4,29.1,00.0,39.2,32.3,10.1,0000.7,0016.70,0004.43,0003.49
2022-11-09 00:25:00,,0820.9,5.01,0.00,30.4,29.1,00.0,39.2,32.3,09.9,0001.3,0016.72,0004.39,0003.45
2022-11-09 00:26:00,,0820.9,5.01,0.00,30.4,29.1,00.0,39.2,32.3,10.1,0001.1,0015.93,0004.40,0003.42
2022-11-09 00:27:00,,0820.9,4.97,0.00,30.4,29.1,00.0,39.2,32.3,09.9,0001.1,0015.52,0004.45,0003.42
2022-11-09 00:28:00,,0820.9,5.01,0.00,30.5,29.1,00.0,39.2,32.2,09.1,0000.6,0014.48,0004.41,0003.37
2022-11-09 00:29:00,,0820.9,5.01,0.00,30.5,29.1,00.0,39.2,32.2,08.9,0000.2,0013.62,0004.30,0003.31
2022-11-09 00:30:00,,0820.9,5.01,0.00,30.5,29.1,00.0,39.2,32.2,09.2,-000.1,0013.95,0004.21,0003.25
2022-11-09 00:31:00,,0820.9,5.00,0.00,30.5,29.1,00.0,39.2,32.2,09.2,-000.2,0013.64,0004.15,0003.20
2022-11-09 00:32:00,,0820.9,4.98,0.00,30.5,29.1,00.0,39.2,32.2,09.3,-000.2,0013.18,0004.16,0003.17
2022-11-09 00:33:00,,0820.9,5.01,0.00,30.5,29.1,00.0,39.2,32.2,09.3,0000.2,0012.65,0004.15,0003.13
2022-11-09 00:34:00,,0820.9,5.00,0.00,30.5,29.1,00.0,39.2,32.2,09.4,0000.4,0013.32,0004.16,0003.08
2022-11-09 00:35:00,,0820.9,5.00,0.00,30.5,29.1,00.0,39.2,32.2,09.2,0000.4,0012.72,0004.12,0003.03
2022-11-09 00:36:00,,0820.9,4.99,0.00,30.5,29.1,00.0,39.2,32.2,09.3,-000.5,0012.34,0004.05,0002.99
2022-11-09 00:37:00,,0820.9,5.00,0.00,30.5,29.0,00.0,39.2,32.2,09.3,-000.6,0013.36,0004.00,0002.96
2022-11-09 00:38:00,,0820.9,4.99,0.00,30.4,29.0,00.0,39.2,32.2,09.3,-000.6,0014.07,0003.94,0002.93
2022-11-09 00:39:00,,0820.9,5.01,0.00,30.4,29.0,00.0,39.3,32.2,09.2,-000.1,0015.56,0003.93,0002.94
2022-11-09 00:40:00,,0820.9,5.01,0.00,30.4,29.0,00.0,39.3,32.2,09.4,0000.0,0016.94,0004.03,0003.01
2022-11-09 00:41:00,,0820.9,5.01,0.00,30.4,29.0,00.0,39.2,32.2,09.8,0000.0,0016.62,0004.18,0003.12
2022-11-09 00:42:00,,0820.9,4.97,0.00,30.4,29.0,00.0,39.2,32.2,09.7,-000.1,0017.07,0004.28,0003.20
2022-11-09 00:43:00,,0820.9,4.99,0.00,30.4,29.0,00.0,39.3,32.2,09.2,0000.8,0017.68,0004.27,0003.23
2022-11-09 00:44:00,,0820.9,5.00,0.00,30.4,29.0,00.0,39.3,32.2,08.6,0000.6,0017.95,0004.22,0003.20
2022-11-09 00:45:00,,0820.9,5.00,0.00,30.4,29.0,00.0,39.3,32.2,08.2,0000.1,0017.10,0004.11,0003.14
2022-11-09 00:46:00,,0820.9,5.01,0.00,30.4,29.0,00.0,39.2,32.1,08.1,0000.0,0017.31,0004.00,0003.06
2022-11-09 00:47:00,,0820.9,5.01,0.00,30.4,28.9,00.0,39.2,32.1,08.2,0000.0,0018.33,0003.93,0002.96
2022-11-09 00:48:00,,0820.9,5.00,0.00,30.4,28.9,00.0,39.3,32.1,08.2,0000.0,0017.21,0003.88,0002.89
2022-11-09 00:49:00,,0820.9,5.00,0.00,30.4,28.9,00.0,39.2,32.1,08.1,0000.0,0015.80,0003.82,0002.78
2022-11-09 00:50:00,,0820.9,5.01,0.00,30.4,28.8,00.0,39.2,32.1,07.9,0000.0,0014.35,0003.70,0002.66
2022-11-09 00:51:00,,0820.9,5.01,0.00,30.4,28.8,00.0,39.2,32.1,07.9,0000.0,0013.07,0003.56,0002.52
2022-11-09 00:52:00,,0820.9,4.98,0.00,30.4,28.8,00.0,39.3,32.1,07.9,0000.0,0013.30,0003.36,0002.33
2022-11-09 00:53:00,,0820.9,5.01,0.00,30.3,28.8,00.0,39.3,32.1,07.7,0000.0,0012.53,0003.12,0002.07
2022-11-09 00:54:00,,0820.9,5.01,0.00,30.3,28.8,00.0,39.2,32.1,07.6,0000.0,0012.09,0002.88,0001.86
2022-11-09 00:55:00,,0820.9,5.01,0.00,30.3,28.8,00.0,39.2,32.1,07.6,0000.0,0011.84,0002.75,0001.76
2022-11-09 00:56:00,,0820.9,5.00,0.00,30.3,28.8,00.0,39.2,32.1,07.6,0000.0,0011.75,0002.66,0001.71
2022-11-09 00:57:00,,0820.9,5.00,0.00,30.3,28.8,00.0,39.2,32.0,07.7,0000.0,0011.49,0002.59,0001.68
2022-11-09 00:58:00,,0820.9,4.98,0.00,30.3,28.8,00.0,39.2,32.0,07.7,0000.0,0009.60,0002.56,0001.67
2022-11-09 00:59:00,,0820.9,5.00,0.00,30.3,28.7,00.0,39.2,32.0,07.7,0000.0,0009.41,0002.51,0001.64
